Date String (YYYY-MM-DD hh:mm:ss) UTC,Instrument flags,Ambient pressure (hPa),Sample flow (lpm),Bypass flow (lpm),Sample temperature (°C),Ambient temperature (°C),ASC tube jacket temperature (°C),LED temperature (°C),Box temperature (°C),Sample RH (%),Span deviation,Mass concentration (μg/m³),Mass concentration (μg/m³),Mass concentration (μg/m³)
DateTimeUTC,F1_M11,P_M11,Q1_M11,Q2_M11,T1_M11,T2_M11,T3_M11,T4_M11,T5_M11,U1_M11,ZSPAN_M11,X0_M11,X2_M11,X1_M11
2022-11-06 12:00:00,,0819.3,5.01,0.00,23.2,21.9,00.0,31.9,25.1,15.8,0000.0,0004.99,0001.31,0000.81
2022-11-06 12:01:00,,0819.3,4.98,0.00,23.2,21.9,00.0,31.9,25.1,15.9,0000.0,0004.97,0001.30,0000.80
2022-11-06 12:02:00,,0819.4,5.01,0.00,23.2,21.9,00.0,31.9,25.1,16.0,0000.0,0004.86,0001.29,0000.80
2022-11-06 12:03:00,,0819.4,5.01,0.00,23.2,21.9,00.0,32.0,25.1,16.2,0000.0,0004.81,0001.28,0000.81
2022-11-06 12:04:00,,0819.5,4.98,0.00,23.2,21.9,00.0,32.0,25.1,16.2,0000.0,0004.79,0001.28,0000.82
2022-11-06 12:05:00,,0819.5,5.01,0.00,23.2,21.9,00.0,31.9,25.1,16.2,0000.0,0004.77,0001.29,0000.84
2022-11-06 12:06:00,,0819.5,5.01,0.00,23.2,21.9,00.0,31.9,25.1,16.2,0000.0,0004.77,0001.28,0000.86
2022-11-06 12:07:00,,0819.5,4.98,0.00,23.2,21.9,00.0,31.9,25.1,16.2,0000.0,0005.75,0001.29,0000.87
2022-11-06 12:08:00,,0819.5,5.01,0.00,23.2,21.9,00.0,31.9,25.1,16.2,0000.0,0005.49,0001.25,0000.88
2022-11-06 12:09:00,,0819.6,5.01,0.00,23.2,21.9,00.0,31.9,25.1,16.2,0000.0,0005.23,0001.25,0000.89
2022-11-06 12:10:00,,0819.7,4.99,0.00,23.2,21.9,00.0,31.9,25.1,16.2,0000.0,0005.37,0001.24,0000.90
2022-11-06 12:11:00,,0819.7,4.99,0.00,23.2,21.9,00.0,31.9,25.1,16.2,0000.0,0004.65,0001.30,0000.90
2022-11-06 12:12:00,,0819.7,5.01,0.00,23.2,21.9,00.0,31.9,25.1,16.2,0000.0,0004.94,0001.33,0000.89
2022-11-06 12:13:00,,0819.7,5.00,0.00,23.2,21.9,00.0,31.9,25.1,16.2,0000.0,0006.45,0001.37,0000.88
2022-11-06 12:14:00,,0819.8,5.00,0.00,23.2,21.9,00.0,32.0,25.1,16.3,0000.0,0007.34,0001.43,0000.87
2022-11-06 12:15:00,,0819.8,4.99,0.00,23.2,21.9,00.0,32.0,25.1,16.3,0000.0,0007.81,0001.46,0000.87
2022-11-06 12:16:00,,0819.8,4.99,0.00,23.2,21.9,00.0,32.0,25.1,16.3,0000.0,0008.20,0001.46,0000.86
2022-11-06 12:17:00,,0819.7,5.00,0.00,23.2,21.9,00.0,32.0,25.1,16.2,0000.0,0009.13,0001.51,0000.85
2022-11-06 12:18:00,,0819.7,5.00,0.00,23.2,21.9,00.0,32.0,25.1,16.2,0000.0,0008.51,0001.53,0000.85
2022-11-06 12:19:00,,0819.6,5.00,0.00,23.2,21.9,00.0,32.0,25.1,16.2,0000.0,0008.60,0001.56,0000.86
2022-11-06 12:20:00,,0819.7,5.01,0.00,23.2,21.9,00.0,32.0,25.1,16.2,0000.0,0008.54,0001.54,0000.85
2022-11-06 12:21:00,,0819.7,5.01,0.00,23.2,21.9,00.0,32.0,25.1,16.2,0000.0,0008.48,0001.62,0000.85
2022-11-06 12:22:00,,0819.7,5.00,0.00,23.2,21.8,00.0,32.0,25.1,16.1,0000.0,0008.34,0001.61,0000.85
2022-11-06 12:23:00,,0819.7,5.00,0.00,23.2,21.8,00.0,32.0,25.1,16.0,0000.0,0008.35,0001.57,0000.85
2022-11-06 12:24:00,,0819.6,4.99,0.00,23.2,21.8,00.0,32.0,25.1,15.7,0000.0,0007.90,0001.54,0000.87
2022-11-06 12:25:00,,0819.5,4.99,0.00,23.2,21.9,00.0,32.0,25.1,15.5,0000.0,0007.90,0001.46,0000.87
2022-11-06 12:26:00,,0819.7,5.01,0.00,23.2,21.9,00.0,32.0,25.1,15.5,0000.0,0007.40,0001.41,0000.85
2022-11-06 12:27:00,,0819.9,5.00,0.00,23.2,21.9,00.0,32.0,25.1,15.4,0000.0,0006.90,0001.43,0000.84
2022-11-06 12:28:00,,0820.0,5.01,0.00,23.2,21.9,00.0,32.0,25.1,15.4,0000.0,0005.30,0001.36,0000.83
2022-11-06 12:29:00,,0820.0,4.98,0.00,23.2,21.9,00.0,32.0,25.1,15.5,0000.0,0005.05,0001.33,0000.81
2022-11-06 12:30:00,,0820.0,5.00,0.00,23.2,21.8,00.0,32.0,25.1,15.6,0000.0,0004.92,0001.27,0000.80
2022-11-06 12:31:00,,0820.0,5.01,0.00,23.2,21.8,00.0,32.0,25.1,15.7,0000.0,0005.23,0001.30,0000.80
2022-11-06 12:32:00,,0820.0,5.01,0.00,23.2,21.8,00.0,32.0,25.1,15.8,0000.0,0004.95,0001.22,0000.79
2022-11-06 12:33:00,,0819.9,5.00,0.00,23.2,21.8,00.0,32.0,25.1,15.8,0000.0,0004.51,0001.16,0000.79
2022-11-06 12:34:00,,0819.9,5.00,0.00,23.2,21.8,00.0,32.0,25.1,15.8,0000.0,0004.26,0001.16,0000.78
2022-11-06 12:35:00,,0819.9,5.00,0.00,23.2,21.8,00.0,32.0,25.1,15.8,0000.0,0003.88,0001.17,0000.79
2022-11-06 12:36:00,,0819.9,5.00,0.00,23.2,21.9,00.0,32.0,25.1,15.8,0000.0,0003.15,0001.19,0000.79
2022-11-06 12:37:00,,0819.9,4.99,0.00,23.2,21.9,00.0,32.0,25.1,15.7,0000.0,0003.38,0001.20,0000.80
2022-11-06 12:38:00,,0819.9,5.00,0.00,23.2,21.9,00.0,32.0,25.1,15.5,0000.0,0003.83,0001.21,0000.80
2022-11-06 12:39:00,,0820.0,5.00,0.00,23.2,21.9,00.0,32.0,25.1,15.5,0000.0,0003.85,0001.20,0000.80
2022-11-06 12:40:00,,0819.9,5.00,0.00,23.3,21.8,00.0,32.0,25.1,15.5,0000.0,0003.73,0001.20,0000.80
2022-11-06 12:41:00,,0819.9,4.99,0.00,23.2,21.8,00.0,32.0,25.1,15.6,0000.0,0003.68,0001.26,0000.80
2022-11-06 12:42:00,,0820.0,5.00,0.00,23.2,21.8,00.0,32.0,25.1,15.8,0000.0,0003.52,0001.28,0000.80
2022-11-06 12:43:00,,0819.9,5.00,0.00,23.2,21.8,00.0,32.0,25.1,15.8,0000.0,0003.71,0001.33,0000.80
2022-11-06 12:44:00,,0819.9,4.99,0.00,23.2,21.7,00.0,32.0,25.1,15.8,0000.0,0004.01,0001.40,0000.80
2022-11-06 12:45:00,,0819.9,5.01,0.00,23.2,21.7,00.0,32.0,25.0,15.8,0000.0,0004.56,0001.42,0000.81
2022-11-06 12:46:00,,0820.0,4.98,0.00,23.2,21.7,00.0,32.0,25.0,15.8,0000.0,0004.47,0001.44,0000.80
2022-11-06 12:47:00,,0819.9,5.01,0.00,23.2,21.7,00.0,32.0,25.0,15.7,0000.0,0004.35,0001.48,0000.80
2022-11-06 12:48:00,,0820.0,5.00,0.00,23.2,21.7,00.0,32.0,25.0,15.7,0000.0,0004.17,0001.51,0000.80
2022-11-06 12:49:00,,0819.9,4.98,0.00,23.2,21.7,00.0,32.0,25.1,15.7,0000.0,0003.79,0001.55,0000.81
2022-11-06 12:50:00,,0819.9,5.01,0.00,23.2,21.7,00.0,32.0,25.1,15.8,0000.0,0004.00,0001.62,0000.83
2022-11-06 12:51:00,,0819.9,4.99,0.00,23.2,21.8,00.0,32.0,25.1,15.8,0000.0,0005.04,0001.67,0000.84
2022-11-06 12:52:00,,0820.0,5.01,0.00,23.2,21.7,00.0,32.0,25.1,15.8,0000.0,0005.52,0001.64,0000.85
2022-11-06 12:53:00,,0820.0,5.00,0.00,23.2,21.7,00.0,32.0,25.0,15.8,0000.0,0005.39,0001.62,0000.85
2022-11-06 12:54:00,,0819.9,5.00,0.00,23.1,21.5,00.0,32.0,25.0,15.9,0000.0,0005.13,0001.58,0000.86
2022-11-06 12:55:00,,0819.9,4.98,0.00,23.1,21.5,00.0,32.0,25.0,15.9,0000.0,0006.29,0001.58,0000.86
2022-11-06 12:56:00,,0819.9,5.02,0.00,23.1,21.4,00.0,31.9,25.0,15.9,0000.0,0006.50,0001.64,0000.87
2022-11-06 12:57:00,,0819.8,5.00,0.00,23.1,21.4,00.0,31.9,25.0,15.9,0000.0,0006.72,0001.64,0000.86
2022-11-06 12:58:00,,0819.9,5.01,0.00,23.1,21.3,00.0,31.9,24.9,16.0,0000.0,0007.37,0001.64,0000.85
2022-11-06 12:59:00,,0820.0,5.00,0.00,23.0,21.3,00.0,31.9,24.9,16.0,0000.0,0007.71,0001.66,0000.85
